EW1090 Weather Reports


Display with metric or nautical units.
time (UTC)temp
F
wind
direction
speed
MPH
gust
MPH
rain 1hr
in
rain 24hr
in
rain mn
in
humidity
%
barometer
mb
20260505011320 71 153 0.0 0.0 0.00 0.00 0.00 54 1013.3
20260505010816 71 213 0.0 2.0 0.00 0.00 0.00 54 1013.2
20260505010311 71 213 0.0 2.0 0.00 0.00 0.00 54 1013.4
20260505005827 71 179 0.0 2.0 0.00 0.00 0.00 54 1013.3
20260505005324 72 194 0.0 2.0 0.00 0.00 0.00 53 1013.5
20260505004907 72 84 0.0 2.0 0.00 0.00 0.00 53 1013.7
20260505004322 72 121 0.0 2.0 0.00 0.00 0.00 52 1013.7
20260505003839 72 147 0.0 3.0 0.00 0.00 0.00 52 1013.6
20260505003313 72 179 0.0 3.0 0.00 0.00 0.00 52 1013.5
20260505002830 72 159 0.0 7.0 0.00 0.00 0.00 51 1013.6
20260505002347 73 242 0.0 6.0 0.00 0.00 0.00 51 1013.7
20260505001820 73 246 0.0 6.0 0.00 0.00 0.00 51 1013.8
20260505001316 73 229 0.0 6.0 0.00 0.00 0.00 50 1013.8
20260505000813 73 222 1.0 7.0 0.00 0.00 0.00 50 1013.6
20260505000310 73 170 1.0 7.0 0.00 0.00 0.00 49 1013.7
20260504235827 74 209 4.0 7.0 0.00 0.00 0.00 48 1013.7
20260504235323 74 232 3.0 7.0 0.00 0.00 0.00 47 1013.7
20260504234817 75 217 1.0 6.0 0.00 0.00 0.00 47 1013.7
20260504234333 75 281 2.0 7.0 0.00 0.00 0.00 46 1013.8
20260504233849 76 239 3.0 7.0 0.00 0.00 0.00 46 1013.9
20260504233323 76 248 2.0 7.0 0.00 0.00 0.00 44 1014.0
20260504232820 77 211 0.0 6.0 0.00 0.00 0.00 44 1013.9
20260504232316 77 215 0.0 6.0 0.00 0.00 0.00 43 1013.9
20260504231828 77 182 0.0 3.0 0.00 0.00 0.00 43 1014.0
20260504231346 77 170 1.0 6.0 0.00 0.00 0.00 43 1014.0
20260504230844 77 199 1.0 7.0 0.00 0.00 0.00 42 1014.1
20260504230317 77 258 1.0 7.0 0.00 0.00 0.00 41 1014.0
20260504225813 77 239 3.0 7.0 0.00 0.00 0.00 40 1014.1
20260504225329 78 242 0.0 3.0 0.00 0.00 0.00 40 1014.0
20260504224825 78 190 0.0 6.0 0.00 0.00 0.00 39 1014.2
20260504224322 78 169 2.0 6.0 0.00 0.00 0.00 38 1014.2
20260504223818 79 207 0.0 3.0 0.00 0.00 0.00 37 1014.3
20260504223315 79 63 0.0 5.0 0.00 0.00 0.00 38 1014.4
20260504222810 79 243 1.0 5.0 0.00 0.00 0.00 39 1014.3
20260504222328 79 296 1.0 6.0 0.00 0.00 0.00 38 1014.4
20260504221816 79 144 1.0 6.0 0.00 0.00 0.00 38 1014.3
20260504221332 79 136 1.0 5.0 0.00 0.00 0.00 37 1014.6
20260504220827 79 346 0.0 4.0 0.00 0.00 0.00 37 1014.6
20260504220410 79 304 1.0 4.0 0.00 0.00 0.00 38 1014.6
20260504215825 79 262 0.0 6.0 0.00 0.00 0.00 36 1014.6
20260504214823 79 212 0.0 7.0 0.00 0.00 0.00 39 1014.4
20260504214320 79 153 3.0 7.0 0.00 0.00 0.00 36 1014.5
20260504213816 79 153 0.0 8.0 0.00 0.00 0.00 39 1014.4
20260504213331 79 144 3.0 8.0 0.00 0.00 0.00 38 1014.5
20260504212848 79 146 0.0 7.0 0.00 0.00 0.00 37 1014.5
20260504212323 79 235 0.0 11.0 0.00 0.00 0.00 36 1014.7
20260504211820 79 200 3.0 11.0 0.00 0.00 0.00 35 1014.9
20260504211316 80 223 1.0 7.0 0.00 0.00 0.00 36 1014.8
20260504210811 80 101 2.0 7.0 0.00 0.00 0.00 35 1014.5
20260504210327 80 103 2.0 9.0 0.00 0.00 0.00 36 1014.6
20260504205824 79 157 1.0 9.0 0.00 0.00 0.00 37 1014.5
20260504205319 79 186 2.0 10.0 0.00 0.00 0.00 36 1014.7
20260504204815 79 91 4.0 10.0 0.00 0.00 0.00 36 1014.9
20260504204311 79 176 1.0 7.0 0.00 0.00 0.00 36 1014.9
20260504203827 80 138 1.0 7.0 0.00 0.00 0.00 36 1014.9
20260504203323 80 175 2.0 7.0 0.00 0.00 0.00 36 1015.1
20260504202820 79 159 2.0 9.0 0.00 0.00 0.00 36 1015.1
20260504202314 79 303 3.0 9.0 0.00 0.00 0.00 35 1015.2
20260504201811 79 324 1.0 7.0 0.00 0.00 0.00 37 1015.3
20260504201322 80 267 3.0 6.0 0.00 0.00 0.00 35 1015.5
20260504200820 80 208 2.0 10.0 0.00 0.00 0.00 37 1015.6
20260504195817 80 167 2.0 8.0 0.00 0.00 0.00 35 1015.7
20260504195313 80 273 1.0 5.0 0.00 0.00 0.00 39 1015.9
20260504194828 80 263 0.0 7.0 0.00 0.00 0.00 36 1015.9
20260504194317 79 252 0.0 8.0 0.00 0.00 0.00 39 1016.1
20260504193812 79 221 3.0 8.0 0.00 0.00 0.00 39 1016.1
20260504193329 79 209 3.0 12.0 0.00 0.00 0.00 37 1016.0
20260504192824 79 219 2.0 7.0 0.00 0.00 0.00 37 1016.1
20260504192321 79 298 1.0 12.0 0.00 0.00 0.00 39 1016.2
20260504191817 79 96 3.0 11.0 0.00 0.00 0.00 39 1016.1
20260504191313 79 213 2.0 6.0 0.00 0.00 0.00 39 1016.1
20260504190829 79 281 1.0 14.0 0.00 0.00 0.00 38 1016.2
20260504185825 80 263 4.0 10.0 0.00 0.00 0.00 39 1016.4
20260504185321 79 232 1.0 7.0 0.00 0.00 0.00 40 1016.4
20260504184817 79 116 2.0 7.0 0.00 0.00 0.00 38 1016.4
20260504184313 78 351 2.0 9.0 0.00 0.00 0.00 40 1016.6
20260504183830 78 287 1.0 10.0 0.00 0.00 0.00 40 1016.7
20260504183326 78 275 3.0 13.0 0.00 0.00 0.00 38 1016.7
20260504182824 78 239 3.0 13.0 0.00 0.00 0.00 40 1016.7
20260504182320 79 227 4.0 10.0 0.00 0.00 0.00 39 1016.7
20260504181837 79 202 1.0 7.0 0.00 0.00 0.00 40 1016.7
20260504181353 79 184 1.0 7.0 0.00 0.00 0.00 41 1016.7
20260504180848 79 290 3.0 7.0 0.00 0.00 0.00 38 1016.6
20260504180343 79 24 0.0 2.0 0.00 0.00 0.00 39 1016.7
20260504175818 79 261 0.0 2.0 0.00 0.00 0.00 37 1016.7
20260504175314 79 98 0.0 0.0 0.00 0.00 0.00 39 1016.9
20260504174830 78 161 0.0 7.0 0.00 0.00 0.00 41 1016.9
20260504174326 78 269 0.0 9.0 0.00 0.00 0.00 39 1017.0
20260504173822 79 169 2.0 7.0 0.00 0.00 0.00 39 1017.0
20260504173317 79 212 2.0 7.0 0.00 0.00 0.00 38 1017.0
20260504172814 79 194 2.0 6.0 0.00 0.00 0.00 40 1017.0
20260504172312 78 49 0.0 1.0 0.00 0.00 0.00 39 1016.8
20260504171828 78 230 0.0 4.0 0.00 0.00 0.00 37 1016.8
20260504171326 78 250 2.0 7.0 0.00 0.00 0.00 38 1017.0
20260504170821 78 197 2.0 7.0 0.00 0.00 0.00 39 1016.9
20260504170315 78 197 2.0 6.0 0.00 0.00 0.00 37 1016.8
20260504160318 77 132 0.0 0.0 0.00 0.01 0.00 40 1017.6
20260504150827 76 64 0.0 4.0 0.00 0.02 0.00 43 1017.7
20260504150324 76 78 1.0 4.0 0.00 0.02 0.00 43 1017.7
20260504141330 73 287 0.0 2.0 0.00 0.03 0.00 48 1017.7
20260504140843 73 263 0.0 2.0 0.00 0.03 0.00 50 1017.9
20260504140318 73 267 0.0 0.0 0.00 0.03 0.00 52 1017.8
20260504130353 68 126 0.0 0.0 0.00 0.04 0.00 59 1017.9
20260504110323 58 126 0.0 0.0 0.00 0.05 0.00 74 1017.0
20260504100350 61 126 0.0 0.0 0.00 0.06 0.00 69 1017.2